Location: Chakepay
(13.3931°S, 72.1925°W)
Time: 04:20:26
(UTC+00:00)

Cosmos 1092 Rocket - Pass Details

Date: 15 November 2019
Orbit: 954 x 995 km, 82.9° (Epoch: 06 December)

Event Time Altitude Azimuth Distance (km) Brightness Sun altitude
Rises 00:58:54 0° 182° (S) 3,680 7.4 -28.4°
Reaches altitude 10° 01:01:25 10° 180° (S) 2,734 6.7 -28.9°
Enters shadow 01:07:01 70° 150° (SSE) 1,044 4.0 -30.1°
